Location: Keppel Henge
(44.7900°N, 80.9447°W)
Time: 12:40:59
(UTC-04:00)

Envisat - Visible Passes

Search period start: 20 July 2018 00:00
Search period end: 30 July 2018 00:00
Orbit: 764 x 766 km, 98.2° (Epoch: 20 July)

Date Brightness Start Highest point End Pass type
(mag) Time Alt. Az. Time Alt. Az. Time Alt. Az.
21 Jul 6.0 22:16:05 10° W 22:17:01 10° W 22:17:58 10° WNW visible
22 Jul 5.3 21:35:49 10° SW 21:39:50 23° W 21:43:53 10° NW visible
24 Jul 5.8 22:03:13 10° WSW 22:05:42 14° W 22:08:12 10° WNW visible
25 Jul 5.0 21:24:12 10° SSW 21:28:35 29° W 21:33:00 10° NW visible
27 Jul 5.6 21:51:07 10° SW 21:54:23 17° W 21:57:42 10° NW visible
